User: anonymous   Login
Location: Pegasus Observatory
(35.6569°N, 82.5850°W)
Time: 21:06:13
(UTC-04:00)
Language:

XW-2B - Orbit

View from above orbital plane
View from above orbital plane
View from above satellite
View from above satellite

Ground track
Ground track

The orbit data is extracted from the following two-line orbital elements,

1 40911U 15049N   20093.71832394  .00000892  00000-0  49650-4 0  9992
2 40911  97.4768  96.5769 0012255 275.9225 143.4676 15.16138108250694
Epoch (UTC): 02 April 2020 17:14:23
Eccentricity: 0.0012255
inclination: 97.4768°
perigee height: 509 km
apogee height: 526 km
right ascension of ascending node: 96.5769°
argument of perigee: 275.9225°
revolutions per day: 15.16138108
mean anomaly at epoch: 143.4676°
orbit number at epoch: 25069

The dashed part of the orbit path shows where the satellite is in the earth's shadow,  

DLR